Weather History for Valentine, NE

Change the Weather History Date:

Sunday, September 30, 2012

  Actual Average Record
Temperature  
Mean Temperature 68 °F 55 °F  
Max Temperature 85 °F 70 °F 94 °F (1967)
Min Temperature 50 °F 40 °F 21 °F (1984)
Degree Days  
Heating Degree Days 0 10  
Month to date heating degree days 112 160  
Since 1 July heating degree days 118 185  
Cooling Degree Days 3 1  
Month to date cooling degree days 105 81  
Year to date cooling degree days 1303 817  
Growing Degree Days 17 (Base 50)    
Moisture  
Dew Point 44 °F    
Average Humidity 53    
Maximum Humidity 80    
Minimum Humidity 26    
Precipitation  
Precipitation T in 0.06 in 0.73 in (1918)
Month to date precipitation 0.22 1.64  
Year to date precipitation 9.46 17.75  
Snow  
Snow 0.00 in 0.00 in T in (1985)
Month to date snowfall 0.0 0.7  
Since 1 July snowfall 0.0 0.7  
Since 1 September snowfall 0.0 0.7  
Snow Depth 0.00 in    
Sea Level Pressure  
Sea Level Pressure 29.96 in    
Wind  
Wind Speed 7 mph (NW)    
Max Wind Speed 25 mph    
Max Gust Speed 36 mph    
Visibility 10 miles    
Events Rain    
T = Trace of Precipitation, MM = Missing Value Source: NWS Daily Summary

Daily Weather History Graph

Daily Weather History Graph

Search for Another Location

Airport:

Trip Planner

Search our weather history database for the weather conditions in past years. The results will help you decide how hot, cold, wet, or windy it might be!

Date:

Astronomy

Sep. 30, 2012 Rise Set
Actual Time 7:38 AM CDT 7:24 PM CDT
Civil Twilight 7:10 AM CDT 7:52 PM CDT
Nautical Twilight 6:37 AM CDT 8:25 PM CDT
Astronomical Twilight 6:04 AM CDT 8:58 PM CDT
Moon 7:26 PM CDT (9/30) 8:13 AM CDT (9/30)
Length of Visible Light 12h 41m
Length of Day
11h 45m
Full, 100% of the Moon is Illuminated
Sep 30
Full
Oct 8
Last Quarter
Oct 15
New
Oct 21
First Quarter
Oct 29
Full

Hourly Weather History & Observations

Time (CDT) Temp. Dew Point Humidity Pressure Visibility Wind Dir Wind Speed Gust Speed Precip Events Conditions
12:52 AM 61.0 °F 41.0 °F 48% 29.98 in 10.0 mi SSW 11.5 mph - N/A   Clear
1:52 AM 59.0 °F 42.1 °F 53% 29.97 in 10.0 mi South 9.2 mph - N/A   Clear
2:52 AM 59.0 °F 44.1 °F 58% 29.95 in 10.0 mi SSW 8.1 mph - N/A   Clear
3:52 AM 57.9 °F 44.1 °F 60% 29.94 in 10.0 mi South 5.8 mph - N/A   Clear
4:52 AM 57.0 °F 44.1 °F 62% 29.94 in 10.0 mi Calm Calm - N/A   Clear
5:52 AM 51.1 °F 42.1 °F 71% 29.96 in 10.0 mi Calm Calm - N/A   Clear
6:52 AM 51.1 °F 43.0 °F 74% 29.94 in 10.0 mi Calm Calm - N/A   Clear
7:52 AM 50.0 °F 44.1 °F 80% 29.96 in 10.0 mi South 5.8 mph - N/A   Clear
8:52 AM 54.0 °F 46.0 °F 75% 29.97 in 10.0 mi Calm Calm - N/A   Clear
9:52 AM 60.1 °F 46.9 °F 62% 29.97 in 10.0 mi West 4.6 mph - N/A   Clear
10:52 AM 66.9 °F 48.0 °F 51% 29.96 in 10.0 mi West 3.5 mph - N/A   Clear
11:52 AM 73.9 °F 48.0 °F 40% 29.94 in 10.0 mi Calm Calm - N/A   Clear
12:52 PM 79.0 °F 48.9 °F 35% 29.94 in 10.0 mi Calm Calm - N/A   Clear
1:52 PM 82.0 °F 46.0 °F 28% 29.92 in 10.0 mi South 4.6 mph - N/A   Clear
2:52 PM 82.9 °F 45.0 °F 26% 29.90 in 10.0 mi North 19.6 mph 27.6 mph N/A   Partly Cloudy
3:52 PM 81.0 °F 45.0 °F 28% 29.91 in 10.0 mi NNW 20.7 mph - N/A   Clear
4:52 PM 81.0 °F 42.1 °F 25% 29.92 in 10.0 mi North 18.4 mph 24.2 mph N/A   Clear
5:52 PM 78.1 °F 41.0 °F 27% 29.94 in 10.0 mi NNE 11.5 mph - N/A   Clear
6:52 PM 75.0 °F 43.0 °F 32% 29.95 in 10.0 mi NNE 12.7 mph - N/A   Partly Cloudy
7:52 PM 70.0 °F 42.1 °F 36% 29.97 in 10.0 mi NNE 3.5 mph - N/A   Clear
8:52 PM 66.0 °F 43.0 °F 43% 29.99 in 10.0 mi North 3.5 mph - N/A   Clear
9:52 PM 61.0 °F 42.1 °F 50% 30.01 in 10.0 mi NW 5.8 mph - N/A   Clear
10:52 PM 66.0 °F 46.9 °F 50% 30.04 in 10.0 mi North 17.3 mph - N/A   Mostly Cloudy
11:52 PM 64.0 °F 48.0 °F 56% 30.03 in 10.0 mi Variable 5.8 mph - 0.00 in Rain Light Rain